STARLINK-32634 (62313 NORAD) Tracking and Keplerian Element Data

This shows tracking and keplerian element data for the satellite.

Feedback or suggestion? Click here.




ElementValue
Catalog62313
NameSTARLINK-32634
Epoch Orbit824
Epoch Day34.82722996
Epoch Year2025
RAAN251.0476
Inclination53.156
Eccentricity0.0001376
Argument of Perigee93.0776
Mean Anonmoly267.0386
Mean Motion15.39612647
Decay Rate-6.88E-06
L11 62313U 24239N 25034.82722996 -.00000688 00000+0 -72108-5 0 9990
L22 62313 53.1560 251.0476 0001376 93.0776 267.0386 15.39612647 8241



Live tracking and technical data element details for STARLINK-32634 (NORAD 62313). STARLINK-32634 can be tracked NOW for your location showing map with azimuth and elevation plus other details from your city location.







IsCatalogInMostPopularTable: catalog: 62313, numindb: 13
Update: records affected: 1



GetName: 62313 STARLINK-32634

Hit Count: updated at: Mon, 19 May 2025 00:55:45 GMT